Powrót do katalogu

CZ-6A DEB

AktywnySSO
NORAD 60213·DEBRIS·🇨🇳 China

Wystrzelony Jul 4, 2024 z Taiyuan Satellite Launch Center

Loading…

Następne Przeloty (najbliższe 24 godziny)

TLE

ŚwieżeSource: Space-Track

Epoka: Sep 14, 2026, 01:08 UTC

1 60213U 24126C   26257.04756108  .00009964  00000-0  56959-3 0  9995
2 60213  97.8156 280.2856 0004058   0.8008 359.3228 15.12892555120170

Śledź CZ-6A DEB w czasie rzeczywistym z AllMySat

Download on the App Store